Location: Luz Observatory
(34.5000°N, 117.2833°W)
Time: 06:59:23
(UTC-07:00)

Okean 3 Rocket - Visible Passes

Search period start: 28 March 2017 00:00
Search period end: 07 April 2017 00:00
Orbit: 614 x 646 km, 82.5° (Epoch: 26 March)

Date Brightness Start Highest point End Pass type
(mag) Time Alt. Az. Time Alt. Az. Time Alt. Az.
28 Mar 5.4 20:37:07 10° NNW 20:41:01 32° W 20:44:57 10° SSW visible
29 Mar 6.6 20:59:10 10° NW 21:01:41 15° W 21:04:13 10° WSW visible
30 Mar 3.5 19:40:28 10° N 19:44:53 80° E 19:49:20 10° S visible
31 Mar 4.8 20:01:29 10° NNW 20:05:43 45° W 20:09:57 10° SSW visible
01 Apr 6.3 20:23:06 10° NW 20:26:25 21° W 20:29:45 10° SW visible
04 Apr 5.9 19:47:18 10° NNW 19:51:09 29° W 19:55:00 10° SSW visible
05 Apr 6.9 20:09:31 10° NW 20:11:48 14° W 20:14:04 10° WSW visible
